Torna al catalogo

FENGYUN 1C DEB

AttivoSSO
NORAD 30213·DEBRIS·🇨🇳 China

Lanciato May 10, 1999 da Taiyuan Satellite Launch Center

Loading…

Prossimi Passaggi (prossime 24 ore)

TLE

AggiornatoSource: Space-Track

Epoca: Sep 14, 2026, 03:58 UTC

1 30213U 99025VW  26257.16575406  .00001695  00000-0  91395-3 0  9991
2 30213  99.1121 343.2632 0070310 190.0050 198.5685 14.12888037  4034

Traccia FENGYUN 1C DEB in tempo reale con AllMySat

Download on the App Store